#timestamp,LO_Frequency,Hit,StdDev 
1597046415.6,286047000.0,N
1597046435.4,286047000.1,N
1597046455.3,286047000.4,N
1597046475.1,286047001.0,N
1597046476.0,286047001.0,N
1597046495.8,286047000.9,N
1597046515.7,286047001.1,N
1597046535.5,286046998.3,N
1597046555.4,286046998.2,N
1597046575.2,286046998.1,N
1597046595.0,286046998.5,N
1597046595.9,286046998.5,N
1597046615.8,286046998.4,N
1597046635.6,286046999.3,N
1597046655.5,286047001.2,N
1597046675.3,286047000.5,N
1597046695.1,286047001.2,N
1597046715.9,286047000.5,N
1597046735.7,286047000.5,N
1597046755.5,286047001.2,N
1597046775.4,286047001.0,N
1597046795.2,286046998.2,N
1597046815.1,286046998.1,N
1597046816.0,286046998.1,N
1597046835.8,286047000.8,N
1597046855.6,286047001.1,N
1597046875.5,286047000.9,N
1597046895.3,286047000.1,N
1597046915.1,286047000.5,N
1597046935.9,286047000.5,N
1597046955.7,286047000.6,N
1597046975.6,286047000.4,N
1597046995.4,286047000.9,N
1597047015.2,286047000.6,N
1597047035.1,286047000.3,N
1597047036.0,286047000.3,N
1597047055.8,286047000.2,N
1597047075.7,286047000.3,N
1597047095.5,286047000.3,N
1597047115.3,286047000.4,N
1597047135.2,286047000.3,N
1597047155.0,286047000.6,N
1597047155.9,286047000.6,N
1597047175.8,286047000.6,N
1597047195.6,286047001.0,N
1597047215.4,286047001.1,N
1597047235.3,286047001.1,N
1597047255.1,286047000.9,N
1597047275.8,286047000.9,N
1597047295.7,286046998.9,N
1597047315.5,286046998.5,N
1597047335.4,286046999.0,N
1597047355.2,286046998.5,N
1597047375.0,286047000.8,N
1597047375.9,286047000.8,N
1597047395.8,286047001.2,N
1597047415.6,286047000.7,N
1597047435.5,286047000.9,N
1597047455.3,286047000.7,N
1597047475.1,286047000.6,N
1597047495.9,286047000.5,N
1597047515.7,286046998.5,N
1597047535.8,286047000.8,N
1597047555.6,286046998.1,N
1597047575.5,286046998.1,N
1597047595.3,286046998.5,N
1597047615.2,286047000.7,N
1597047635.9,286046998.1,N
1597047655.7,286047000.7,N
1597047675.6,286047001.1,N
1597047695.4,286047000.4,N
1597047715.2,286047001.0,N
1597047735.1,286046999.6,N
1597047736.0,286046999.6,N
1597047755.8,286046998.4,N
1597047775.7,286047000.4,N
1597047795.5,286047001.1,N
1597047815.3,286047000.3,N
1597047835.2,286047000.8,N
1597047855.0,286047000.6,N
1597047855.9,286047000.6,N
1597047875.7,286047001.1,N
1597047895.6,286046999.9,N
1597047915.4,286047000.7,N
1597047935.3,286047000.9,N
1597047955.1,286047000.3,N
1597047956.0,286047000.3,N
1597047975.8,286047002.3,N
1597047995.7,286047002.4,N
1597048015.5,286047000.4,N
1597048035.3,286047001.0,N
1597048055.2,286047001.1,N
1597048075.0,286046998.2,N
1597048075.9,286046998.2,N
1597048095.8,286046998.7,N
1597048115.6,286046999.4,N
1597048135.5,286046996.5,Y
1597048155.3,286046996.8,P
1597048175.1,286046997.0,N
1597048195.9,286046996.6,N
1597048215.7,286046997.4,N
1597048235.5,286046996.8,N
1597048255.4,286046997.1,N
1597048275.2,286046997.8,N
1597048295.1,286046996.8,N
1597048296.0,286046996.8,Y
1597048315.8,286047000.0,P
1597048335.6,286047002.3,N
1597048355.5,286047002.3,N
1597048405.4,286047004.1,E
1597048415.3,286047002.4,N
1597048435.1,286046998.6,P
1597048455.8,286046998.6,N
1597048475.7,286047000.5,N
1597048495.5,286047000.4,N
1597048515.4,286047002.4,N
1597048535.2,286047000.2,N
1597048555.0,286046999.8,N
1597048555.9,286046999.8,N
1597048575.8,286047000.9,N
1597048595.6,286047000.6,N
1597048615.4,286047000.7,N
1597048635.3,286046998.4,N
1597048655.1,286046998.4,N
1597048675.9,286046999.0,N
1597048695.7,286046998.9,N
1597048715.5,286046998.8,N
1597048735.4,286046997.1,N
1597048755.2,286046995.0,Y
1597048775.3,286046997.2,P
1597048795.1,286046999.6,N
1597048796.0,286046999.6,N
1597048815.8,286046996.6,Y
1597048865.7,286046998.0,E
1597048875.6,286046996.8,N
1597048895.5,286046998.7,P
1597048915.3,286046998.6,N
1597048935.1,286047001.2,N
1597048955.9,286047002.8,N
1597048975.7,286047002.6,N
1597048995.5,286047002.4,N
1597049015.4,286047001.0,N
1597049035.2,286047000.9,N
1597049055.1,286047000.2,N
1597049056.0,286047000.2,N
1597049075.8,286047000.0,N
1597049095.6,286046999.8,N
1597049115.5,286047002.2,N
1597049135.3,286047002.6,N
1597049155.1,286047002.7,N
1597049175.9,286047000.2,N
1597049195.7,286047000.6,N
1597049215.6,286047000.8,N
1597049235.4,286047000.3,N
1597049255.2,286047002.3,N
1597049275.1,286047000.4,N
1597049276.0,286047000.4,N
1597049295.8,286046998.6,N
1597049315.6,286047001.1,N
1597049335.5,286047001.0,N
1597049355.3,286046998.2,N
1597049375.2,286047001.1,N
1597049395.9,286047001.1,N
1597049415.7,286047000.3,N
1597049435.6,286047002.5,N
1597049455.4,286047002.8,N
1597049475.3,286047001.0,N
1597049495.1,286046998.3,N
1597049496.0,286046998.3,N
1597049515.8,286047000.0,N
1597049535.7,286047000.8,N
1597049555.5,286046999.0,N
1597049575.4,286046995.4,Y
1597049595.2,286046995.7,P
1597049615.0,286046993.7,N
1597049615.9,286046993.7,N
1597049635.8,286046994.5,N
1597049655.6,286046994.1,N
1597049675.5,286046994.0,N
1597049695.3,286046993.9,N
1597049715.1,286046994.5,N
1597049735.9,286046993.7,Y
1597049755.7,286046998.2,P
1597049775.6,286046998.7,N
1597049795.4,286047001.0,N
1597049815.2,286046998.2,N
1597049835.1,286046998.7,N
1597049836.0,286046998.7,N
1597049855.8,286046997.0,N
1597049875.7,286046999.2,N
1597049895.5,286046997.7,N
1597049915.3,286046995.4,Y
1597049935.2,286046997.0,P
1597049955.0,286046996.5,P
1597049955.9,286046996.5,P
1597049975.8,286046999.3,N
1597049995.6,286046999.1,N
